CW8478 Weather Reports


time (UTC)temp
C
wind
direction
speed
KPH
gust
KPH
rain 1hr
cm
rain 24hr
cm
rain mn
cm
humidity
%
barometer
mb
20260507124500 10 16 0.0 3.2 0.00 0.28 0.00 55 1011.4
20260507123059 10 244 1.6 4.8 0.00 0.28 0.00 53 1011.4
20260507121555 8 307 0.0 4.8 0.00 0.28 0.00 60 1011.4
20260507120054 8 4 0.0 3.2 0.00 0.28 0.00 68 1011.2
20260507114553 6 183 0.0 3.2 0.00 0.46 0.00 80 1011.1
20260507113051 4 226 0.0 0.0 0.00 0.46 0.00 85 1011.1
20260507111550 2 226 0.0 1.6 0.00 0.46 0.00 85 1011.1
20260507110113 1 227 0.0 0.0 0.00 0.46 0.00 84 1010.8
20260507104548 1 227 0.0 0.0 0.00 0.51 0.00 83 1010.8
20260507103046 1 227 0.0 0.0 0.00 0.51 0.00 82 1010.7
20260507101546 1 226 0.0 0.0 0.00 0.51 0.00 81 1010.7
20260507100046 1 227 0.0 0.0 0.00 0.51 0.00 80 1010.6
20260507094540 2 227 0.0 1.6 0.00 0.53 0.00 79 1010.6
20260507093043 2 226 0.0 0.0 0.00 0.53 0.00 77 1010.4
20260507091534 3 227 0.0 0.0 0.00 0.53 0.00 75 1010.5
20260507090030 3 226 0.0 0.0 0.00 0.53 0.00 72 1010.4
20260507084526 4 227 0.0 0.0 0.00 0.53 0.00 69 1010.2
20260507083022 5 226 0.0 1.6 0.00 0.53 0.00 67 1010.3
20260507081518 6 227 0.0 0.0 0.00 0.53 0.00 62 1010.4
20260507080012 7 224 0.0 1.6 0.00 0.53 0.00 61 1010.3
20260507074510 7 224 0.0 3.2 0.00 0.53 0.00 60 1010.4
20260507073008 8 224 0.0 3.2 0.00 0.53 0.00 59 1010.4
20260507071519 8 218 0.0 1.6 0.00 0.53 0.00 56 1010.2
20260507070010 8 218 0.0 4.8 0.00 0.53 0.00 56 1010.2
20260507064504 8 236 0.0 6.4 0.00 0.53 0.00 57 1010.2
20260507063004 8 233 0.0 3.2 0.00 0.53 0.00 57 1010.3
20260507061601 8 236 0.0 3.2 0.00 0.53 0.00 56 1010.4
20260507060059 8 218 0.0 3.2 0.00 0.53 0.00 55 1010.5
20260507054602 8 247 3.2 9.7 0.00 0.53 0.00 54 1010.6
20260507053122 8 257 1.6 3.2 0.00 0.53 0.00 56 1010.4
20260507051601 8 251 1.6 8.0 0.00 0.53 0.00 55 1010.6
20260507050050 8 263 0.0 4.8 0.00 0.53 0.00 59 1010.5
20260507044549 9 195 0.0 4.8 0.00 0.53 0.00 60 1010.6
20260507043045 9 233 0.0 1.6 0.00 0.53 0.00 57 1010.5
20260507041546 9 234 0.0 1.6 0.00 0.53 0.00 56 1010.1
20260507040039 9 234 0.0 1.6 0.00 0.53 0.00 56 1010.2
20260507034539 10 234 0.0 1.6 0.00 0.53 0.53 55 1010.3
20260507033044 10 51 0.0 3.2 0.00 0.53 0.53 57 1010.2
20260507031534 10 235 0.0 14.5 0.00 0.53 0.53 54 1010.0
20260507030033 10 325 1.6 9.7 0.00 0.53 0.53 54 1009.8
20260507024533 10 255 1.6 9.7 0.00 0.53 0.53 61 1009.7
20260507023033 10 241 0.0 8.0 0.00 0.53 0.53 74 1009.6
20260507021525 10 262 0.0 4.8 0.00 0.53 0.53 79 1009.3
20260507020023 10 234 0.0 3.2 0.00 0.53 0.53 77 1009.1
20260507014519 10 211 0.0 0.0 0.00 0.53 0.53 74 1009.6
20260507013017 11 211 0.0 1.6 0.00 0.53 0.53 73 1009.6
20260507011515 11 238 0.0 3.2 0.00 0.53 0.53 72 1009.6
20260507010022 11 209 0.0 3.2 0.00 0.53 0.53 72 1009.4
20260507004512 11 234 1.6 6.4 0.00 0.53 0.53 72 1009.4
20260507003010 11 262 0.0 1.6 0.00 0.53 0.53 72 1009.2
20260507001506 11 249 0.0 6.4 0.00 0.53 0.53 71 1008.7
20260507000011 11 248 4.8 9.7 0.00 0.53 0.53 72 1008.5
20260506234504 11 249 4.8 12.9 0.00 0.53 0.53 73 1008.3
20260506233002 12 311 1.6 8.0 0.00 0.53 0.53 74 1007.9
20260506231603 12 247 1.6 14.5 0.00 0.53 0.53 73 1007.8
20260506230107 12 241 4.8 12.9 0.00 0.53 0.53 73 1007.8
20260506224556 12 271 4.8 12.9 0.00 0.53 0.53 73 1008.0
20260506223054 12 337 6.4 12.9 0.00 0.53 0.53 73 1007.6
20260506221551 13 240 6.4 12.9 0.00 0.53 0.53 73 1007.0
20260506220051 13 257 4.8 11.3 0.00 0.53 0.53 73 1007.0
20260506214600 13 245 4.8 17.7 0.00 0.53 0.53 72 1006.9
20260506213046 14 278 6.4 24.1 0.00 0.53 0.53 71 1006.5
20260506211543 14 231 4.8 12.9 0.00 0.53 0.53 71 1006.1
20260506210041 15 244 6.4 14.5 0.00 0.53 0.53 72 1005.7
20260506204544 15 242 4.8 12.9 0.00 0.56 0.53 73 1005.6
20260506203039 15 232 6.4 12.9 0.00 0.56 0.53 72 1005.4
20260506201538 16 260 6.4 14.5 0.00 0.56 0.53 72 1005.2
20260506200037 16 240 8.0 16.1 0.00 0.56 0.53 73 1004.9
20260506194539 16 244 4.8 17.7 0.00 0.56 0.53 75 1004.8
20260506193038 16 229 4.8 12.9 0.00 0.56 0.53 76 1004.7
20260506191535 16 225 11.3 22.5 0.00 0.56 0.53 76 1004.4
20260506190037 17 246 9.7 20.9 0.00 0.56 0.53 76 1004.3
20260506184534 16 197 8.0 16.1 0.00 0.56 0.53 80 1004.2
20260506183034 16 187 4.8 11.3 0.03 0.56 0.53 84 1004.4
20260506181532 15 185 3.2 6.4 0.03 0.56 0.53 85 1004.3
20260506180034 15 176 4.8 9.7 0.05 0.56 0.53 85 1004.2
20260506174531 15 230 4.8 11.3 0.05 0.56 0.53 86 1004.3
20260506173031 15 203 1.6 6.4 0.03 0.53 0.51 87 1004.2
20260506171530 15 207 1.6 3.2 0.03 0.53 0.51 87 1004.1
20260506170030 15 172 1.6 6.4 0.00 0.51 0.48 86 1003.9
20260506164529 15 214 1.6 9.7 0.00 0.51 0.48 86 1003.9
20260506163029 15 181 0.0 6.4 0.00 0.51 0.48 86 1003.9
20260506161534 15 183 1.6 8.0 0.00 0.51 0.48 86 1003.9
20260506160030 15 174 3.2 9.7 0.00 0.51 0.48 87 1003.9
20260506154527 15 160 1.6 6.4 0.00 0.51 0.48 86 1003.9
20260506153025 15 192 0.0 3.2 0.00 0.51 0.48 86 1003.9
20260506151524 14 194 0.0 3.2 0.03 0.51 0.48 86 1003.8
20260506150023 14 205 0.0 1.6 0.03 0.51 0.48 86 1003.8
20260506144523 14 195 0.0 4.8 0.03 0.51 0.48 86 1003.5
20260506143026 14 197 0.0 3.2 0.05 0.51 0.48 86 1003.8
20260506141530 14 197 0.0 1.6 0.08 0.48 0.46 86 1003.7
20260506140022 14 185 0.0 3.2 0.08 0.48 0.46 86 1003.3
20260506134518 14 193 0.0 4.8 0.08 0.46 0.43 86 1003.5
20260506133018 14 179 0.0 0.0 0.10 0.46 0.43 86 1003.6
20260506131523 14 160 0.0 0.0 0.08 0.41 0.38 86 1003.8
20260506130021 14 160 0.0 0.0 0.13 0.41 0.38 86 1003.8